Location: *
(28.3744°N, 81.5492°W)
Time: 03:21:46
(UTC+00:00)

H-2A R/B - Pass Details

Date: 15 June 2025
Orbit: 531 x 543 km, 98.2° (Epoch: 11 July)

Event Time Altitude Azimuth Distance (km) Brightness Sun altitude
Rises 08:29:43 0° 19° (NNE) 2,707 7.9 -22.1°
Reaches altitude 10° 08:31:55 10° 25° (NNE) 1,811 6.9 -21.7°
Maximum altitude 08:35:41 47° 100° (E) 723 4.1 -21.1°
Enters shadow 08:37:07 31° 154° (SSE) 956 4.3 -20.9°
